Zurück zum Katalog

CITY LABS BOHR

AktivWissenschaftSSO
NORAD 69917·PAYLOAD·🇫🇮 Finland

Gestartet Jul 7, 2026 von Vandenberg Space Force Base

Loading…

Nächste Überflüge (nächste 24 Stunden)

TLE

AktuellSource: Space-Track

Epoche: Sep 14, 2026, 11:01 UTC

1 69917U 26156BA  26257.45945162  .00001532  00000-0  15396-3 0  9998
2 69917  97.7492 156.8755 0008319 298.8341  61.2043 14.92681936 10315

Verfolge CITY LABS BOHR in Echtzeit mit AllMySat

Download on the App Store